When you browse on this site, cookies collect data to enhance your experience and personalize the content and advertising you see.
Visit our Privacy Policy to learn more. By continuing to use the site, you agree to this use of cookies and data.
  • In Schweiz
  • Länderverzeichnis
  • Für 7 Tage
  • Wassertemperatur
  • Satellitenkarten
  • Wetterkarte
  • Widgets
  • user-avatar
    Anmelden

    Stündliche Wetter Coburg

    Heute, 23 Mai, Donnerstag

    Zeit Temperatur Niederschläge Wind Luftdruck Luftfeuchtigkeit
    00:00 +8°C° 0 mm 1 m/S 737 mmHg 94%
    01:00 +6°C° 0 mm 0 m/S 737 mmHg 94%
    02:00 +6°C° 0 mm 0 m/S 737 mmHg 94%
    03:00 +6°C° 0 mm 0 m/S 737 mmHg 94%
    04:00 +6°C° 0 mm 0 m/S 737 mmHg 94%
    05:00 +8°C° 0 mm 0 m/S 737 mmHg 89%
    06:00 +9°C° 0 mm 0 m/S 737 mmHg 84%
    07:00 +12°C° 0 mm 1 m/S 737 mmHg 78%
    08:00 +14°C° 0 mm 1 m/S 737 mmHg 70%
    09:00 +16°C° 0 mm 1 m/S 737 mmHg 62%
    10:00 +18°C° 0 mm 2 m/S 737 mmHg 54%
    11:00 +18°C° 0 mm 2 m/S 737 mmHg 54%
    12:00 +18°C° 0 mm 2 m/S 737 mmHg 54%
    13:00 +19°C° 0 mm 2 m/S 737 mmHg 54%
    14:00 +19°C° 0 mm 2 m/S 736 mmHg 54%
    15:00 +19°C° 0 mm 2 m/S 736 mmHg 54%
    16:00 +20°C° 0 mm 1 m/S 736 mmHg 55%
    17:00 +19°C° 0 mm 1 m/S 736 mmHg 61%
    18:00 +18°C° 0 mm 1 m/S 735 mmHg 68%
    19:00 +15°C° 0 mm 0 m/S 735 mmHg 75%
    20:00 +14°C° 0 mm 0 m/S 735 mmHg 79%
    21:00 +13°C° 0 mm 1 m/S 735 mmHg 83%
    22:00 +12°C° 0 mm 1 m/S 735 mmHg 87%
    23:00 +11°C° 0 mm 1 m/S 735 mmHg 88%

    Morgen, 24 Mai, Freitag

    Zeit Temperatur Niederschläge Wind Luftdruck Luftfeuchtigkeit
    00:00 +10°C° 0 mm 1 m/S 735 mmHg 90%
    01:00 +10°C° 0 mm 1 m/S 735 mmHg 92%
    02:00 +10°C° 0 mm 1 m/S 735 mmHg 92%
    03:00 +8°C° 0 mm 0 m/S 735 mmHg 92%
    04:00 +8°C° 0 mm 0 m/S 734 mmHg 92%
    05:00 +10°C° 0 mm 0 m/S 735 mmHg 86%
    06:00 +12°C° 0 mm 0 m/S 735 mmHg 80%
    07:00 +14°C° 0 mm 0 m/S 735 mmHg 74%
    08:00 +16°C° 0 mm 0 m/S 735 mmHg 68%
    09:00 +18°C° 0 mm 0 m/S 735 mmHg 62%
    10:00 +22°C° 0 mm 1 m/S 735 mmHg 55%
    11:00 +23°C° 0.1 mm 1 m/S 735 mmHg 54%
    12:00 +22°C° 0.1 mm 0 m/S 734 mmHg 52%
    13:00 +22°C° 0.1 mm 0 m/S 734 mmHg 51%
    14:00 +24°C° 0.2 mm 1 m/S 734 mmHg 52%
    15:00 +23°C° 0.2 mm 1 m/S 733 mmHg 54%
    16:00 +23°C° 0.2 mm 1 m/S 733 mmHg 55%
    17:00 +21°C° 0.2 mm 1 m/S 732 mmHg 63%
    18:00 +20°C° 0.2 mm 1 m/S 732 mmHg 71%
    19:00 +19°C° 0.2 mm 1 m/S 732 mmHg 79%
    20:00 +16°C° 0.1 mm 1 m/S 732 mmHg 83%
    21:00 +15°C° 0.1 mm 1 m/S 732 mmHg 86%
    22:00 +12°C° 0.1 mm 0 m/S 732 mmHg 89%
    23:00 +12°C° 0 mm 0 m/S 732 mmHg 90%

    übermorgen, 25 Mai, Samstag

    Zeit Temperatur Niederschläge Wind Luftdruck Luftfeuchtigkeit
    00:00 +11°C° 0 mm 0 m/S 732 mmHg 91%
    01:00 +11°C° 0 mm 0 m/S 733 mmHg 91%
    02:00 +11°C° 0 mm 0 m/S 733 mmHg 92%
    03:00 +10°C° 0 mm 0 m/S 733 mmHg 93%
    04:00 +11°C° 0 mm 1 m/S 733 mmHg 93%
    05:00 +12°C° 0 mm 1 m/S 733 mmHg 90%
    06:00 +14°C° 0 mm 1 m/S 733 mmHg 87%
    07:00 +15°C° 0 mm 1 m/S 734 mmHg 84%
    08:00 +16°C° 0.3 mm 1 m/S 734 mmHg 82%
    09:00 +17°C° 0.3 mm 2 m/S 734 mmHg 81%
    10:00 +17°C° 0.3 mm 2 m/S 734 mmHg 80%
    11:00 +19°C° 0.3 mm 2 m/S 734 mmHg 73%
    12:00 +20°C° 0.3 mm 2 m/S 734 mmHg 65%
    13:00 +21°C° 0.3 mm 2 m/S 734 mmHg 58%
    14:00 +21°C° 0.1 mm 2 m/S 734 mmHg 56%
    15:00 +21°C° 0.1 mm 2 m/S 734 mmHg 54%
    16:00 +21°C° 0.1 mm 2 m/S 733 mmHg 52%
    17:00 +19°C° 0 mm 2 m/S 733 mmHg 59%
    18:00 +18°C° 0 mm 3 m/S 733 mmHg 66%
    19:00 +16°C° 0 mm 3 m/S 733 mmHg 72%
    20:00 +14°C° 0 mm 2 m/S 734 mmHg 79%
    21:00 +12°C° 0 mm 2 m/S 734 mmHg 86%
    22:00 +10°C° 0 mm 1 m/S 734 mmHg 94%
    23:00 +10°C° 0 mm 1 m/S 734 mmHg 94%

    26 Mai, Sonntag

    Zeit Temperatur Niederschläge Wind Luftdruck Luftfeuchtigkeit
    00:00 +9°C° 0 mm 1 m/S 734 mmHg 95%
    01:00 +8°C° 0 mm 1 m/S 734 mmHg 95%
    02:00 +8°C° 0 mm 1 m/S 734 mmHg 95%
    03:00 +7°C° 0 mm 0 m/S 734 mmHg 94%
    04:00 +6°C° 0 mm 0 m/S 734 mmHg 94%
    05:00 +8°C° 0 mm 0 m/S 734 mmHg 88%
    06:00 +10°C° 0 mm 0 m/S 734 mmHg 81%
    07:00 +12°C° 0 mm 0 m/S 734 mmHg 75%
    08:00 +15°C° 0 mm 1 m/S 734 mmHg 68%
    09:00 +16°C° 0 mm 2 m/S 734 mmHg 61%
    10:00 +18°C° 0 mm 3 m/S 734 mmHg 55%
    11:00 +19°C° 0 mm 3 m/S 734 mmHg 54%
    12:00 +19°C° 0 mm 3 m/S 733 mmHg 53%
    13:00 +20°C° 0 mm 4 m/S 733 mmHg 52%
    14:00 +20°C° 0 mm 3 m/S 733 mmHg 52%
    15:00 +21°C° 0 mm 3 m/S 732 mmHg 52%
    16:00 +21°C° 0 mm 3 m/S 732 mmHg 52%
    17:00 +20°C° 0 mm 2 m/S 732 mmHg 59%
    18:00 +19°C° 0 mm 2 m/S 732 mmHg 66%
    19:00 +19°C° 0 mm 1 m/S 731 mmHg 72%
    20:00 +16°C° 0 mm 1 m/S 731 mmHg 77%
    21:00 +15°C° 0 mm 1 m/S 731 mmHg 81%
    22:00 +13°C° 0 mm 1 m/S 731 mmHg 86%
    23:00 +13°C° 0 mm 1 m/S 731 mmHg 88%

    27 Mai, Montag

    Zeit Temperatur Niederschläge Wind Luftdruck Luftfeuchtigkeit
    00:00 +12°C° 0 mm 1 m/S 731 mmHg 90%
    01:00 +12°C° 0 mm 1 m/S 730 mmHg 92%
    02:00 +11°C° 0 mm 1 m/S 730 mmHg 93%
    03:00 +11°C° 0 mm 1 m/S 730 mmHg 95%
    04:00 +11°C° 0 mm 1 m/S 730 mmHg 96%
    05:00 +12°C° 0 mm 1 m/S 729 mmHg 92%
    06:00 +14°C° 0 mm 2 m/S 729 mmHg 88%
    07:00 +15°C° 0 mm 2 m/S 729 mmHg 85%
    08:00 +17°C° 0.1 mm 2 m/S 729 mmHg 81%
    09:00 +18°C° 0.1 mm 3 m/S 729 mmHg 76%
    10:00 +20°C° 0.1 mm 3 m/S 729 mmHg 72%
    11:00 +20°C° 0.8 mm 3 m/S 728 mmHg 75%
    12:00 +20°C° 0.8 mm 4 m/S 727 mmHg 77%
    13:00 +20°C° 0.8 mm 4 m/S 727 mmHg 79%
    14:00 +20°C° 0.8 mm 3 m/S 726 mmHg 80%
    15:00 +20°C° 0.8 mm 3 m/S 726 mmHg 80%
    16:00 +20°C° 0.8 mm 3 m/S 725 mmHg 81%
    17:00 +19°C° 0.5 mm 3 m/S 725 mmHg 84%
    18:00 +18°C° 0.5 mm 2 m/S 725 mmHg 87%
    19:00 +17°C° 0.5 mm 2 m/S 725 mmHg 91%
    20:00 +16°C° 0.1 mm 2 m/S 725 mmHg 93%
    21:00 +15°C° 0.1 mm 1 m/S 725 mmHg 94%
    22:00 +13°C° 0.1 mm 1 m/S 725 mmHg 96%
    23:00 +13°C° 0 mm 1 m/S 725 mmHg 97%

    28 Mai, Dienstag

    Zeit Temperatur Niederschläge Wind Luftdruck Luftfeuchtigkeit
    00:00 +11°C° 0 mm 0 m/S 725 mmHg 97%
    01:00 +11°C° 0 mm 0 m/S 725 mmHg 97%
    02:00 +11°C° 0 mm 0 m/S 725 mmHg 97%
    03:00 +11°C° 0 mm 0 m/S 725 mmHg 98%
    04:00 +10°C° 0 mm 0 m/S 725 mmHg 98%
    05:00 +11°C° 0.1 mm 0 m/S 725 mmHg 96%
    06:00 +13°C° 0.1 mm 1 m/S 726 mmHg 94%
    07:00 +14°C° 0.1 mm 1 m/S 726 mmHg 92%
    08:00 +15°C° 0.1 mm 1 m/S 726 mmHg 85%
    09:00 +18°C° 0.1 mm 1 m/S 726 mmHg 77%
    10:00 +18°C° 0.1 mm 2 m/S 726 mmHg 69%
    11:00 +18°C° 0.1 mm 2 m/S 727 mmHg 66%
    12:00 +19°C° 0.1 mm 2 m/S 727 mmHg 62%
    13:00 +19°C° 0.1 mm 3 m/S 727 mmHg 59%
    14:00 +19°C° 0.1 mm 3 m/S 727 mmHg 60%
    15:00 +19°C° 0.1 mm 2 m/S 727 mmHg 62%
    16:00 +19°C° 0.1 mm 2 m/S 727 mmHg 63%
    17:00 +18°C° 0.1 mm 2 m/S 727 mmHg 70%
    18:00 +17°C° 0.1 mm 2 m/S 728 mmHg 76%
    19:00 +16°C° 0.1 mm 2 m/S 728 mmHg 83%
    20:00 +15°C° 0 mm 1 m/S 728 mmHg 87%
    21:00 +14°C° 0 mm 1 m/S 729 mmHg 91%
    22:00 +12°C° 0 mm 1 m/S 729 mmHg 95%
    23:00 +11°C° 0 mm 0 m/S 730 mmHg 95%
    Mehr zeigen